User: anonymous   Login
Location: Unspecified
(0.0000°N, 0.0000°E)
Time: 15:45:56
(UTC+00:00)
Language:

SAUDISAT 1B - Orbit

View from above orbital plane
View from above orbital plane
View from above satellite
View from above satellite

Ground track
Ground track

The orbit data is extracted from the following two-line orbital elements,

1 26549U 00057E   19078.61028479 +.00000010 +00000-0 +19434-4 0  9996
2 26549 064.5511 298.7879 0038307 327.7588 032.1176 14.83551549998439
Epoch (UTC): 19 March 2019 14:38:48
Eccentricity: 0.0038307
inclination: 64.5511°
perigee height: 591 km
apogee height: 645 km
right ascension of ascending node: 298.7879°
argument of perigee: 327.7588°
revolutions per day: 14.83551549
mean anomaly at epoch: 32.1176°
orbit number at epoch: 99843

The dashed part of the orbit path shows where the satellite is in the earth's shadow,  

DLR